Main page
METAR-TAF:

METAR-TAF

Airports :

South Texas Regional Airport at Hondo

Hondo, Texas, United States

latitude: 29-21-34N, longitude: 099-10-27W, elevation: 928 ft

Current weather observation

The report was made 30 minutes ago, at 22:51 UTC
Wind 7 mph from the North/Northwest
Temperature 75°F
Humidity 22%
Pressure 29.75 in. Hg
Visibility: 10 miles
Clear sky

METAR: KHDO 252251Z AUTO 34006KT 10SM CLR 24/01 A2975 RMK AO2 SLP060 T02440006 $

Time: 17:21 (23:21 UTC)


TAF: missing

Weather observations and forecasts of more than 4000 airports (METAR and TAF reports).

The available stations are represented by yellow and red dots on the map.

Hover mouse over dot to see the name of the station.

Then click to see weather observations and forecasts.

To change the map : click on the green buttons with a black cross to zoom in, on the green button with a dash to zoom out, or on the green arrows for adjacent maps.


METAR-TAF: